Flag for Honduras Weather past 2 weeks in La Ceiba, Honduras

Now
82 °F

Scattered clouds.


Feels Like: 88 °F
Forecast: 73 / 91 °F
Wind: No wind

Location: La Ceiba Airport

Current Time: Apr 19, 2015 at 8:20:30 AM

Latest Report: Apr 19, 2015 at 8:00 AM


Visibility: N/A

Pressure: 29.83 "Hg

Humidity: 74%

Dew point: 73 °F

Location of La CeibaLocation

Historic Weather in La Ceiba — Graph

°F

La Ceiba temperature yesterday

Maximum temperature yesterday: 88 °F (at 2:00 PM)
Minimum temperature yesterday: 70 °F (at 6:00 AM)
Average temperature yesterday: 80 °F

Past Weeks' High & Low Weather Summary

 TemperatureHumidityPressure
High90 °F (Apr 13, 2:00 PM)100% (Apr 18, 4:00 AM)30.01 "Hg (Apr 18, 4:00 AM)
Low66 °F (Apr 6, 6:00 AM)38% (Apr 17, 10:00 AM)29.74 "Hg (Apr 18, 4:00 PM)
Average79 °F80%29.91 "Hg
* Reported Apr 4 7:00 AM — Apr 19 7:00 AM, La Ceiba, Weather by CustomWeather, © 2015

Note: Actual official high and low records may vary slightly from our data, if they occured in-between our weather recording intervals... More about our weather records

Advertising

La Ceiba weather history for previous 24 hours

 ConditionsComfort  
Time TempWeatherWind HumidityBarometerVisibility
7:00 AM
Sun, Apr 19
77 °FScattered clouds.No wind83%29.83 "HgN/A
6:00 AM73 °FScattered clouds.No wind94%29.83 "HgN/A
3:00 AM73 °FPassing clouds.2 mph94%29.77 "HgN/A
2:00 AM73 °FPassing clouds.No wind94%29.77 "HgN/A
1:00 AM75 °FPassing clouds.3 mph94%29.80 "HgN/A
12:00 AM75 °FPassing clouds.No wind94%29.80 "HgN/A
11:00 PM
Sat, Apr 18
75 °FPassing clouds.No wind94%29.83 "HgN/A
10:00 PM77 °FPassing clouds.2 mph89%29.83 "HgN/A
9:00 PM77 °FPassing clouds.No wind89%29.83 "HgN/A
8:00 PM79 °FPassing clouds.No wind79%29.80 "HgN/A
7:00 PM81 °FPassing clouds.2 mph74%29.80 "HgN/A
6:00 PM82 °FScattered clouds.3 mph70%29.77 "HgN/A
5:00 PM86 °FScattered clouds.5 mph66%29.77 "HgN/A
4:00 PM88 °FPassing clouds.9 mph66%29.74 "HgN/A
3:00 PM88 °FPassing clouds.8 mph66%29.77 "HgN/A
2:00 PM88 °FPassing clouds.8 mph62%29.77 "HgN/A
1:00 PM86 °FPassing clouds.9 mph66%29.80 "HgN/A
12:00 PM86 °FPassing clouds.8 mph66%29.86 "HgN/A
11:00 AM86 °FPassing clouds.6 mph70%29.86 "HgN/A
10:00 AM86 °FScattered clouds.6 mph70%29.89 "HgN/A
9:00 AM86 °FScattered clouds.2 mph66%29.89 "HgN/A
8:00 AM82 °FScattered clouds.2 mph79%29.89 "HgN/A
Weather by CustomWeather, © 2015

See weather overviewHow to use our weather pages